RH
74 77 80 84 84 86 86 85 88 82 82 83 77 72 67 68 72 71 69 72 74 71 72 71 69 70 75 74 71 73 72 77 81 76 75 76 76 77 75 75 76 74 74 74 70 67 64 61 58 58 56 53 50 46 42 40 41 40 38 33 28 27 27 27 30 34 37 37 38 39 41 44 47 47 48 48 48 48 47 47 47 47 47 48 50 51 52 52 52 52 53 57 60 62 60 54 50
76 80 82 85 85 86 84 83 86 80 79 82 72 69 67 64 70 72 69 70 71 70 70 70 70 70 74 72 67 69 70 75 76 71 70 72 76 77 73 74 75 71 71 71 69 66 62 58 55 55 53 50 46 43 42 41 41 39 35 30 27 26 26 28 33 36 36 37 38 39 42 45 46 46 47 48 48 48 48 48 47 47 47 47 48 50 51 53 54 54 54 56 58 61 62 59 56
79 82 84 84 84 85 84 83 85 81 77 78 70 68 67 64 70 73 70 69 70 70 69 69 69 69 70 71 68 66 69 72 69 67 68 70 74 75 72 71 71 67 66 68 68 65 60 55 52 52 51 48 45 43 42 41 40 38 33 29 26 25 25 28 34 36 36 37 39 41 43 44 44 44 45 46 47 47 48 48 47 46 46 47 48 48 50 51 53 54 54 55 57 60 61 60 60
81 80 80 81 81 80 81 82 82 80 76 75 69 66 66 63 66 68 68 67 68 68 69 69 70 69 69 70 68 66 68 69 67 67 68 70 70 69 70 67 68 67 65 65 61 60 57 53 51 49 49 46 44 43 42 40 39 36 31 27 24 23 25 30 34 35 37 39 42 44 44 44 45 46 48 49 49 49 48 48 48 47 47 47 48 48 48 49 50 52 53 55 58 60 61 61 61
81 79 76 78 82 78 78 81 78 76 76 74 68 65 62 60 62 65 66 66 67 67 67 69 70 70 69 68 67 66 66 66 65 66 67 68 64 64 66 64 63 61 62 64 58 57 55 52 50 47 46 45 43 43 41 40 38 34 28 24 22 23 27 33 35 36 39 42 44 45 46 47 50 53 54 56 56 55 53 51 51 50 50 50 50 50 49 48 47 49 51 54 58 60 61 61 61
78 76 74 75 78 77 78 77 72 66 66 67 63 62 58 55 60 63 65 66 66 65 66 69 68 68 68 67 66 66 66 64 61 63 63 62 60 60 62 60 58 57 59 62 57 54 53 51 48 46 45 44 43 41 40 38 35 30 25 23 23 25 30 34 36 39 42 43 44 46 48 51 53 56 57 58 60 61 60 56 54 54 54 54 52 52 51 49 47 47 49 51 55 58 60 62 63
75 76 75 75 73 73 76 74 71 63 57 60 61 59 53 53 57 59 63 65 65 65 65 67 67 67 66 65 65 64 65 62 58 61 60 58 58 58 57 56 55 58 60 60 58 53 51 49 47 46 45 44 43 41 38 35 31 28 24 24 25 28 32 36 39 42 44 44 46 47 48 50 52 54 55 56 57 60 63 60 57 57 56 54 54 54 53 52 49 48 48 49 52 55 58 61 63
71 73 73 74 72 71 74 71 65 59 53 55 58 55 51 51 52 54 59 60 62 64 64 64 65 66 65 65 63 63 64 59 58 60 59 58 57 56 55 55 56 56 57 57 56 53 48 46 45 45 45 43 40 38 36 32 29 27 25 26 29 32 36 38 41 43 45 45 47 46 47 49 51 52 53 54 54 55 58 59 58 58 56 55 55 55 55 55 53 50 49 50 52 53 56 59 61
68 70 71 72 73 73 74 68 58 54 54 55 52 51 50 50 51 52 52 55 57 58 60 62 64 65 67 65 62 63 62 58 59 58 57 58 56 54 53 55 60 55 53 54 50 48 45 44 44 43 43 41 37 35 33 30 28 27 27 29 33 37 38 39 41 43 45 46 46 47 49 51 52 52 51 51 50 50 53 57 58 56 55 53 54 55 56 57 55 52 50 50 51 52 54 57 58
65 66 68 71 73 76 74 63 55 54 54 54 52 48 49 50 50 51 51 52 53 54 55 58 60 62 65 63 63 64 59 57 59 57 56 57 56 54 51 52 57 56 55 53 47 45 43 43 43 41 41 39 36 33 32 30 28 29 30 33 37 38 38 38 40 43 45 46 47 49 52 53 53 52 50 48 47 46 48 51 53 52 52 52 53 54 56 56 55 53 51 50 50 50 51 53 53
65 63 64 72 70 68 64 54 52 53 51 51 50 47 48 48 49 49 50 50 51 52 52 55 57 58 60 59 62 61 57 59 58 55 54 56 56 54 51 49 53 55 54 51 48 45 42 42 41 39 39 38 36 34 31 30 29 31 33 37 38 37 36 37 40 43 46 47 47 49 50 51 50 50 49 48 47 47 46 48 51 52 52 52 52 53 54 55 54 54 54 53 51 50 50 51 51
66 62 64 74 71 63 54 50 49 48 51 53 50 49 47 46 49 49 47 49 49 50 52 57 56 54 56 54 57 57 57 58 56 55 52 53 54 53 51 48 50 53 51 50 50 47 42 40 39 38 39 39 37 35 32 31 31 32 35 38 38 36 35 36 40 44 47 47 46 46 46 46 46 45 46 45 45 46 47 47 50 52 51 51 51 51 51 51 52 53 54 54 54 54 52 52 52
62 62 66 71 71 66 53 47 46 43 48 53 52 50 47 46 50 49 46 47 48 50 51 55 54 55 54 51 53 55 56 57 55 54 51 50 51 51 50 49 51 51 50 49 49 47 42 39 38 38 39 39 38 37 34 31 32 33 36 38 36 34 33 36 41 44 47 46 45 44 44 44 43 43 43 42 42 44 46 48 50 49 48 49 50 50 51 51 52 53 53 52 53 56 55 54 54
58 63 66 63 64 64 55 49 45 45 47 49 48 46 47 49 49 48 47 47 51 53 49 49 50 51 49 46 51 53 54 55 54 53 50 50 49 49 50 51 53 53 51 49 48 46 42 39 37 38 39 38 39 39 36 32 32 34 37 38 35 32 31 34 38 41 44 44 43 42 43 43 42 42 41 41 42 43 44 46 47 47 48 50 53 55 56 57 58 58 57 54 53 56 57 55 55
57 63 63 60 63 62 56 51 47 47 46 47 45 44 48 49 47 49 52 52 52 49 44 45 49 51 47 42 45 49 51 52 52 52 50 49 49 49 49 50 54 54 51 49 48 47 44 40 38 39 39 39 40 40 36 32 33 35 38 37 34 31 30 32 34 38 41 42 42 40 40 40 40 39 39 38 39 40 40 42 43 43 46 49 53 54 54 54 56 58 59 57 55 56 57 57 57
54 59 63 62 65 62 54 49 49 49 46 49 46 44 48 46 47 51 52 53 48 43 44 46 48 49 48 43 42 44 48 49 51 52 49 50 49 50 50 51 53 53 51 50 49 47 44 42 40 40 39 39 40 39 36 33 34 36 38 36 32 30 30 31 32 35 38 39 39 36 36 36 36 36 36 35 36 37 38 39 39 40 43 45 47 47 47 47 48 50 51 52 52 53 54 55 56
55 57 60 59 64 65 58 50 51 52 49 50 47 46 49 45 47 48 45 48 46 45 47 46 44 47 48 44 41 42 45 47 50 50 49 50 50 50 51 52 52 51 52 51 49 47 46 42 40 39 37 38 40 38 35 35 35 36 37 34 31 30 30 31 32 34 36 36 35 32 34 40 39 36 37 37 37 35 35 37 37 39 41 42 43 42 42 42 42 42 42 42 44 47 49 48 48
57 59 57 57 67 71 63 56 52 51 49 49 49 49 51 48 47 45 43 47 46 47 47 44 44 47 47 42 41 43 45 46 47 48 48 50 50 49 50 52 52 51 53 53 50 49 48 43 39 38 35 36 39 37 35 37 35 35 36 33 31 32 31 32 34 35 36 35 34 32 38 49 48 41 41 43 42 38 36 36 37 38 40 41 42 41 41 41 40 39 38 38 38 41 45 45 44
56 59 57 57 68 73 64 58 51 48 49 49 48 47 50 51 49 46 48 48 45 48 48 46 46 45 41 40 43 45 44 45 45 45 46 47 48 48 48 50 51 51 52 53 51 49 48 45 41 39 36 35 38 36 36 37 35 35 36 33 32 33 33 33 35 36 37 36 35 37 45 51 51 45 40 40 40 37 37 38 38 38 38 40 41 43 42 41 42 43 43 41 40 42 44 44 47
54 57 58 62 67 64 56 51 49 48 47 47 46 45 49 52 50 48 50 48 44 48 48 47 46 41 39 39 41 44 44 45 44 44 45 46 47 48 49 47 48 50 52 51 50 49 47 45 43 40 38 37 37 38 39 38 35 35 35 34 33 34 33 34 36 37 38 37 35 40 48 46 43 41 35 36 38 37 37 39 40 39 41 44 45 48 47 46 48 50 49 46 45 44 43 43 44
54 54 54 67 67 56 51 49 48 47 45 47 45 43 47 49 49 48 49 49 45 47 46 46 44 37 37 37 37 40 42 43 43 43 43 43 44 45 47 46 47 48 50 50 48 47 46 46 45 41 38 37 40 41 42 41 35 35 38 37 37 36 36 35 37 38 38 38 37 41 46 41 41 42 36 39 46 47 45 45 48 46 48 51 52 54 52 51 54 53 48 47 50 46 40 41 40
52 53 52 62 64 55 54 50 48 47 46 48 44 44 47 45 45 46 49 52 49 48 45 44 41 35 36 37 36 38 38 40 43 43 41 41 41 43 44 44 46 48 50 52 48 45 46 47 47 43 39 37 41 42 44 44 37 37 41 40 41 40 39 40 41 42 41 38 39 44 44 41 44 45 41 44 50 53 51 52 54 51 51 53 55 56 54 54 55 53 48 48 53 49 41 41 40
49 52 52 55 56 54 54 50 51 50 47 49 46 46 47 43 45 45 48 51 49 51 49 45 40 34 36 38 38 38 38 38 41 44 43 40 40 41 41 40 42 46 49 51 49 47 47 46 45 45 41 38 41 43 45 44 40 40 41 41 42 43 42 44 44 46 45 39 39 44 44 42 44 44 43 45 49 51 51 53 56 54 53 52 55 55 53 55 53 50 48 47 47 46 44 42 42
48 51 54 55 54 54 55 54 53 51 47 49 46 44 43 43 46 44 45 50 48 47 49 52 45 34 34 37 38 40 39 40 40 43 44 41 39 38 39 40 40 43 46 48 48 47 47 46 44 44 43 41 41 44 45 44 41 40 42 41 42 44 43 44 45 47 46 40 39 42 44 45 45 45 44 44 49 51 51 54 55 57 59 55 56 56 52 53 52 50 51 51 50 48 49 46 45
46 47 52 57 56 55 56 55 53 51 49 48 44 43 43 43 45 44 45 49 48 45 48 53 48 36 34 35 37 40 40 41 41 40 40 40 39 38 38 40 40 40 44 47 48 46 47 47 45 46 47 43 41 43 45 44 42 41 43 42 42 44 43 44 45 46 46 42 39 39 43 47 48 47 46 46 49 52 52 53 53 55 56 54 56 56 52 51 51 53 52 54 56 56 57 52 51
47 44 47 52 55 55 55 54 52 50 49 48 46 44 43 41 40 42 45 48 48 46 47 49 43 37 36 35 35 37 39 40 40 39 39 38 38 38 38 39 40 39 41 45 47 46 46 47 46 46 49 44 40 42 44 43 41 42 43 41 43 42 42 45 46 45 45 44 41 36 39 47 49 49 48 48 50 52 53 53 52 52 50 50 52 51 51 51 50 51 49 50 53 54 55 52 56
51 47 46 49 51 53 53 52 51 49 49 49 48 46 45 41 38 41 44 46 46 44 46 46 40 37 38 36 34 35 36 38 39 39 39 38 38 38 38 39 39 39 40 43 46 46 45 45 43 44 46 42 38 41 42 42 41 41 43 41 42 41 41 45 45 45 43 44 45 38 36 42 48 51 49 48 51 52 52 52 51 51 51 50 50 51 52 51 48 48 43 43 48 51 51 49 52
51 49 46 47 48 50 50 50 49 48 49 48 47 46 45 40 39 46 47 44 45 43 44 46 43 40 39 38 36 35 34 35 36 38 38 38 37 37 39 40 39 39 41 42 45 46 45 43 42 43 43 38 36 39 40 41 41 41 41 40 41 39 40 43 43 43 43 45 45 38 36 37 43 49 48 47 49 50 52 52 49 48 51 51 49 50 49 46 47 47 41 38 46 51 50 47 46
45 45 45 47 48 47 47 48 48 48 48 47 46 45 44 40 38 45 46 45 44 42 44 47 48 45 42 40 38 36 34 32 33 34 36 37 36 37 38 39 39 39 41 42 42 45 45 45 44 44 44 39 36 40 41 40 41 40 39 38 40 38 38 42 42 42 43 44 41 36 35 35 38 42 42 42 45 48 50 49 47 48 50 50 49 46 43 44 45 45 44 42 44 47 47 44 43
40 41 42 44 46 46 44 45 46 46 47 46 45 44 44 42 41 41 43 46 43 41 45 46 49 48 45 43 39 37 35 30 29 32 34 35 35 36 37 38 39 39 42 41 41 43 43 45 46 45 44 40 37 40 42 41 42 40 38 39 40 37 37 40 41 42 43 42 38 33 33 34 34 36 35 36 40 45 47 46 46 50 51 48 47 44 41 45 45 42 45 44 42 43 45 43 41
37 38 38 38 41 42 42 44 45 46 46 45 44 44 43 43 44 42 43 47 42 41 45 44 49 52 49 46 42 40 38 32 28 29 32 34 33 34 36 38 38 39 42 41 40 41 41 42 43 43 44 41 37 40 42 42 42 41 39 40 39 36 37 40 40 41 41 39 37 32 31 31 31 33 33 33 36 40 46 49 47 48 49 46 46 45 41 45 44 42 44 42 41 42 43 42 40
33 36 36 34 35 36 39 43 44 44 45 46 44 42 43 44 47 47 47 49 44 42 46 46 49 53 49 46 46 44 41 38 33 28 29 31 32 33 34 36 37 38 41 42 39 40 41 41 40 40 42 41 37 38 39 39 39 39 40 41 39 37 38 40 40 42 40 38 37 33 28 28 29 31 31 32 34 38 44 48 48 49 46 43 46 44 40 43 43 41 40 40 40 39 40 41 42
29 31 32 31 31 32 36 39 41 43 44 45 45 42 42 45 48 49 48 49 46 42 45 46 46 50 50 47 48 48 44 41 38 32 29 29 30 32 33 34 36 36 39 41 39 38 39 39 38 38 39 39 36 37 37 36 36 36 39 40 39 37 36 39 40 41 41 39 38 35 29 27 29 30 31 32 32 37 42 43 47 52 46 42 44 41 40 44 43 41 39 38 38 36 40 44 44
26 27 28 28 29 32 34 37 38 41 43 43 43 42 41 44 46 47 47 48 46 42 42 45 45 46 52 49 46 51 48 43 40 36 30 28 30 31 32 32 33 34 36 40 40 37 37 37 38 36 38 37 34 35 35 35 36 35 36 38 39 37 36 38 39 39 41 39 38 37 33 29 29 30 30 31 31 34 40 41 46 51 47 43 43 41 41 42 42 43 40 37 38 38 42 46 46
23 24 25 25 28 32 35 37 37 37 41 43 42 41 40 43 44 44 46 46 45 42 39 44 45 44 51 49 45 49 50 44 41 39 33 28 29 30 31 32 33 33 34 37 38 37 35 36 36 34 35 37 34 35 36 36 37 35 35 37 38 37 36 37 39 40 40 41 41 39 37 33 30 30 30 31 30 31 36 40 44 48 48 46 45 42 42 43 42 42 40 40 41 40 42 44 45
20 21 24 25 26 30 35 37 38 36 38 42 44 43 40 40 42 43 44 44 43 42 38 41 44 45 48 47 46 47 49 48 42 40 38 31 28 29 29 31 32 33 33 34 37 37 35 34 36 33 34 37 34 34 36 37 38 35 34 36 36 35 35 34 38 40 40 42 44 42 38 32 30 31 30 31 30 30 35 40 45 47 47 48 46 43 43 45 44 41 42 42 42 42 44 45 46
18 19 22 23 24 30 33 33 36 36 35 38 41 43 41 39 40 40 40 43 42 41 39 39 41 45 45 43 44 46 51 55 46 40 42 37 31 29 28 30 32 33 33 34 36 37 35 33 35 34 33 35 33 33 34 34 35 34 33 34 33 33 34 34 35 37 39 43 43 40 36 30 30 31 29 30 30 30 34 40 47 46 46 50 47 44 45 45 43 42 42 42 42 45 49 50 49
15 17 18 21 22 26 31 31 32 34 33 35 38 41 42 39 40 39 38 40 42 40 39 38 39 42 44 42 41 43 51 58 51 40 40 40 35 30 28 28 30 32 33 34 35 37 36 34 34 34 33 33 33 32 33 33 33 34 33 32 31 32 33 33 34 35 37 41 39 37 34 27 29 30 28 30 30 32 35 39 45 44 45 51 47 42 44 44 42 42 43 45 46 47 51 52 48
14 15 15 18 19 21 27 30 32 34 33 35 37 38 40 38 38 39 37 37 39 40 39 38 38 40 44 44 41 42 46 53 52 42 38 40 39 34 30 28 28 30 33 34 35 37 36 34 34 33 32 33 32 31 31 32 32 32 33 32 31 32 33 33 34 34 35 36 36 36 32 25 27 29 28 30 30 33 36 39 44 45 46 49 45 41 42 45 45 42 44 49 50 51 52 51 45
15 15 14 15 15 17 25 28 31 34 32 33 37 37 38 38 36 36 36 37 37 38 38 38 37 38 43 44 42 43 43 48 50 43 38 40 40 38 33 29 28 29 31 32 34 36 36 34 33 32 29 30 31 30 30 30 30 32 32 32 31 31 33 34 34 33 33 33 33 36 31 23 24 27 27 30 30 33 37 38 43 47 48 45 41 41 43 48 50 46 48 49 51 53 51 48 44
13 13 14 13 13 17 25 27 27 31 31 30 33 35 35 35 35 34 34 34 35 35 36 37 37 36 40 42 43 43 40 44 50 44 38 38 39 39 37 33 29 28 29 30 32 34 34 31 30 29 27 26 28 29 28 29 30 31 32 32 32 32 33 34 33 32 33 32 32 35 32 25 24 25 26 28 29 32 35 38 41 45 46 40 39 43 47 51 52 51 52 51 51 51 45 44 41
12 10 12 11 13 17 23 27 27 30 32 28 28 33 32 30 31 31 31 31 33 34 33 35 36 34 37 40 42 42 37 39 49 49 42 38 39 40 41 38 32 27 28 29 30 32 32 29 26 25 25 25 26 25 25 28 28 28 28 28 30 31 31 33 33 31 33 33 32 34 34 30 26 23 25 27 30 31 34 37 40 42 42 39 38 42 48 51 51 52 53 51 50 48 41 40 40
13 10 9 9 11 14 17 22 27 32 34 30 27 29 27 27 28 29 29 29 30 33 33 34 35 35 36 37 40 42 38 35 42 48 43 37 38 39 40 40 35 28 27 29 30 31 31 28 23 22 22 23 24 24 23 25 25 25 25 24 24 27 28 31 33 32 33 32 32 32 32 32 28 24 26 28 29 31 34 36 39 40 39 40 39 39 46 51 52 54 52 49 48 46 43 40 40
13 10 9 8 9 10 11 15 22 29 30 28 29 31 29 28 28 27 28 28 30 33 34 34 35 36 35 37 38 38 37 34 36 41 38 35 37 38 39 41 37 31 27 28 29 30 30 26 21 19 19 20 22 23 22 22 22 22 23 22 23 26 28 30 31 31 32 32 33 32 30 34 32 26 28 30 29 30 34 35 37 39 38 40 41 40 45 51 54 55 51 45 43 44 44 43 42
11 9 9 9 8 8 9 10 15 19 20 20 24 30 30 25 23 25 26 29 33 34 34 35 35 36 35 36 38 35 31 30 32 36 35 33 34 36 39 42 40 33 28 28 27 29 30 25 21 19 18 18 19 21 20 19 19 20 20 21 23 26 28 29 30 30 32 32 33 33 30 33 34 28 26 29 28 29 32 34 36 38 36 38 42 43 46 50 51 52 47 41 39 41 45 44 43
10 9 8 8 9 9 9 9 10 12 13 14 17 22 24 20 18 24 25 26 32 33 33 35 35 36 34 34 38 35 29 28 30 32 33 33 33 35 38 41 41 36 29 28 27 28 29 26 23 20 17 17 17 18 19 18 18 19 20 21 22 24 25 27 30 31 31 31 32 33 31 30 32 29 26 27 27 27 29 32 34 36 36 37 40 44 47 49 50 50 46 42 39 42 46 45 44
9 10 10 10 12 12 12 10 10 10 11 12 13 15 18 17 16 20 22 22 26 28 30 33 34 36 35 36 37 34 29 28 27 28 31 33 33 34 36 37 39 37 31 29 28 27 28 25 21 19 17 17 16 16 17 16 17 18 19 19 20 21 21 23 27 29 30 29 28 28 27 26 27 27 27 28 27 26 27 30 33 35 35 35 39 43 45 48 51 50 46 42 41 43 46 46 45
11 11 11 12 14 14 13 12 11 11 12 11 10 11 13 14 14 16 18 20 23 24 25 28 33 35 36 37 37 33 30 29 27 27 29 32 34 33 32 32 35 35 30 29 28 27 27 24 19 18 17 17 16 16 16 16 16 16 18 18 19 20 19 19 21 24 27 26 26 25 23 22 23 23 26 29 29 28 29 30 32 34 33 33 37 41 43 46 51 52 47 42 40 43 46 46 47
11 11 11 13 14 14 14 13 12 12 11 10 9 9 10 10 12 13 14 17 20 21 21 23 28 33 34 37 37 34 32 30 28 27 27 30 33 32 29 28 30 31 29 29 29 27 27 24 18 16 17 16 16 16 16 16 16 16 16 16 17 17 17 17 17 19 22 22 23 23 20 19 19 19 23 27 28 30 31 30 31 33 32 31 34 39 41 43 48 53 48 41 39 44 46 46 47
12 12 12 13 14 15 15 13 12 11 10 9 8 9 9 8 9 10 11 13 15 17 19 20 25 30 32 34 36 34 34 32 28 27 27 28 30 31 31 30 29 30 28 28 29 28 27 24 18 14 15 15 15 15 15 16 16 16 16 15 15 15 15 16 16 17 20 20 20 20 18 19 19 18 19 21 26 31 32 30 31 32 31 30 31 35 39 40 42 47 46 40 39 44 45 45 45
13 12 12 14 13 13 14 13 11 12 11 10 9 8 9 9 9 10 9 10 11 13 17 18 22 28 30 31 34 34 33 33 31 28 26 26 29 31 32 32 31 31 31 30 29 29 27 24 17 13 13 14 14 14 14 15 15 15 15 14 14 14 15 15 16 17 19 19 17 17 17 18 20 20 19 16 19 27 32 32 31 30 30 30 29 31 34 36 37 41 42 39 41 45 46 47 46
14 12 12 14 12 12 13 12 11 11 11 10 10 9 9 9 9 9 9 9 10 11 14 16 20 25 28 30 33 32 31 32 32 29 27 25 28 31 31 32 33 35 34 33 31 30 28 23 17 12 11 12 13 13 13 14 15 15 14 14 13 14 14 15 15 16 17 18 17 17 16 16 19 22 22 18 16 20 27 30 29 29 30 30 28 29 32 33 35 39 41 38 40 46 49 49 47
16 14 12 12 11 11 13 14 13 12 12 12 10 10 9 9 9 9 9 8 8 9 11 14 17 21 24 28 32 31 30 33 31 27 27 26 28 30 31 31 32 35 36 35 34 31 27 23 19 15 12 11 11 12 13 13 14 14 13 13 13 13 13 14 15 15 16 18 18 17 17 16 16 19 22 22 19 17 20 24 25 27 30 31 29 28 30 31 33 37 40 39 39 45 49 49 47
16 14 12 11 11 11 12 14 14 14 14 12 10 10 10 11 10 9 9 8 8 9 9 11 14 17 19 24 29 32 33 33 31 28 28 28 27 29 31 31 31 33 34 36 36 34 31 25 20 16 13 12 10 11 12 12 13 13 13 13 12 13 13 13 14 15 16 19 19 17 17 16 15 16 19 23 23 20 19 20 23 24 28 31 31 30 30 31 31 34 38 39 39 42 47 50 48
16 15 13 12 12 12 12 14 14 14 14 12 10 10 10 11 11 11 11 10 9 10 10 11 13 14 16 20 25 29 31 31 30 29 29 28 27 28 30 31 31 33 33 34 36 37 37 32 25 19 14 11 10 10 11 11 12 13 13 12 12 12 13 13 14 15 16 18 19 18 16 16 16 16 16 18 22 23 21 19 20 22 24 27 28 28 29 31 31 32 36 39 40 40 43 49 50
15 16 15 13 12 12 13 13 13 13 14 13 11 10 8 9 9 10 12 11 10 10 10 12 13 13 16 21 25 27 30 30 30 29 28 29 29 28 29 30 30 31 33 34 35 36 38 37 34 27 19 15 12 11 10 10 11 12 12 12 13 12 13 14 14 15 16 16 16 17 16 16 16 17 16 16 18 21 21 20 19 20 22 25 26 25 25 28 30 32 34 37 40 40 40 47 51
15 16 16 14 13 12 12 12 11 12 12 14 15 14 12 11 9 8 11 12 11 10 11 12 13 14 17 22 26 28 30 31 30 30 29 29 30 30 31 30 28 29 31 33 34 36 37 38 37 34 27 21 16 13 11 11 11 11 12 12 12 12 13 14 14 14 15 15 15 16 15 15 16 16 16 16 16 17 19 20 19 19 20 24 26 25 23 25 28 31 33 35 39 41 39 42 48
14 15 16 15 14 13 13 13 12 12 11 11 14 17 17 15 11 9 10 12 12 11 12 12 12 13 16 21 26 28 30 31 30 31 31 31 31 32 32 30 28 28 30 33 34 36 36 37 37 37 35 29 22 17 14 14 14 13 13 12 12 12 13 13 14 15 15 15 16 16 15 16 17 17 16 16 16 16 17 19 20 19 18 20 24 26 24 24 25 29 32 33 37 40 40 38 42